Albert Lea, MN

7:16 AM CDT on May 26, 2018 (GMT -0500)
Albert Lea Municipal

Weather History for KAEL - January, 2012

Change the Weather History Date:

Tuesday, January 17, 2012

  Actual Average Record
Temperature  
Mean Temperature 14 °F -  
Max Temperature 19 °F 20 °F 37 °F (2015)
Min Temperature 8 °F 6 °F -16 °F (2016)
Degree Days  
Heating Degree Days 52    
Moisture  
Dew Point 8 °F    
Average Humidity 80    
Maximum Humidity 93    
Minimum Humidity 62    
Precipitation  
Precipitation 0.00 in - - ()
Sea Level Pressure  
Sea Level Pressure 30.05 in    
Wind  
Wind Speed 15 mph (NW)    
Max Wind Speed 20 mph    
Max Gust Speed 29 mph    
Visibility 7 miles    
Events Snow    
Averages and records for this station are not official NWS values.
T = Trace of Precipitation, MM = Missing Value Source: NWS Daily Summary

Daily Weather History Graph

Daily Weather History Graph

Search for Another Location

Airport or City:

Astronomy

Jan. 17, 2012 Rise Set
Actual Time 7:43 AM CST 5:04 PM CST
Civil Twilight 7:11 AM CST 5:35 PM CST
Nautical Twilight 6:36 AM CST 6:11 PM CST
Astronomical Twilight 6:01 AM CST 6:45 PM CST
Moon 2:02 AM CST (1/17) 11:58 AM CST (1/17)
Length of Visible Light 10h 24m
Length of Day
9h 21m
Waning Crescent, 35% of the Moon is Illuminated
Jan 17
Waning Crescent
Jan 23
New
Jan 30
First Quarter
Feb 7
Full
Feb 14
Last Quarter

Hourly Weather History & Observations

Time (CST) Temp. Windchill Dew Point Humidity Pressure Visibility Wind Dir Wind Speed Gust Speed Precip Events Conditions
12:10 AM 19.4 °F 4.5 °F 12.2 °F 74% 29.85 in 10.0 mi North 17.3 mph 21.9 mph N/A   Clear
12:30 AM 19.4 °F 3.6 °F 12.2 °F 74% 29.84 in 10.0 mi North 19.6 mph 25.3 mph N/A   Clear
1:10 AM 19.4 °F 5.0 °F 12.2 °F 74% 29.84 in 10.0 mi North 16.1 mph 23.0 mph N/A   Clear
1:31 AM 19.4 °F 5.5 °F 12.2 °F 74% 29.85 in 10.0 mi North 15.0 mph 20.7 mph N/A   Scattered Clouds
1:50 AM 19.4 °F 5.5 °F 12.2 °F 74% 29.86 in 10.0 mi North 15.0 mph 19.6 mph N/A   Overcast
2:10 AM 19.4 °F 4.1 °F 12.2 °F 74% 29.88 in 10.0 mi North 18.4 mph - N/A   Overcast
2:31 AM 19.4 °F 6.0 °F 12.2 °F 74% 29.91 in 10.0 mi North 13.8 mph 20.7 mph N/A   Overcast
2:50 AM 19.4 °F 6.6 °F 14.0 °F 80% 29.92 in 10.0 mi NNW 12.7 mph - N/A   Overcast
3:11 AM 17.6 °F 3.7 °F 14.0 °F 86% 29.92 in 10.0 mi NNW 13.8 mph 19.6 mph N/A   Overcast
3:31 AM 17.6 °F 3.2 °F 14.0 °F 86% 29.92 in 2.0 mi NNW 15.0 mph 20.7 mph N/A Snow Light Snow
3:50 AM 15.8 °F 1.4 °F 14.0 °F 93% 29.92 in 1.5 mi NNW 13.8 mph 20.7 mph N/A Snow Light Snow
4:11 AM 15.8 °F 1.4 °F 12.2 °F 86% 29.92 in 1.5 mi NNW 13.8 mph 21.9 mph N/A Snow Light Snow
4:30 AM 15.8 °F -0.2 °F 12.2 °F 86% 29.92 in 2.0 mi North 17.3 mph 25.3 mph N/A Snow Light Snow
4:51 AM 15.8 °F 0.3 °F 12.2 °F 86% 29.92 in 2.0 mi NNW 16.1 mph 23.0 mph N/A Snow Light Snow
5:10 AM 15.8 °F -0.6 °F 12.2 °F 86% 29.92 in 1.8 mi NNW 18.4 mph 24.2 mph N/A Snow Light Snow
5:31 AM 14.0 °F -0.8 °F 12.2 °F 93% 29.94 in 2.0 mi NNW 13.8 mph 24.2 mph N/A Snow Light Snow
5:50 AM 14.0 °F -0.8 °F 12.2 °F 93% 29.95 in 2.5 mi NNW 13.8 mph 21.9 mph N/A Snow Light Snow
6:10 AM 14.0 °F -0.8 °F 10.4 °F 86% 29.96 in 2.5 mi NNW 13.8 mph 19.6 mph N/A Snow Light Snow
6:31 AM 14.0 °F 2.0 °F 10.4 °F 86% 29.98 in 2.0 mi NW 9.2 mph 24.2 mph N/A Snow Light Snow
6:50 AM 12.2 °F -1.0 °F 10.4 °F 92% 29.99 in 1.8 mi NNW 10.4 mph 20.7 mph N/A Snow Light Snow
7:10 AM 12.2 °F -4.3 °F 10.4 °F 92% 29.99 in 2.0 mi NNW 16.1 mph 25.3 mph N/A Snow Light Snow
7:30 AM 12.2 °F -4.3 °F 10.4 °F 92% 30.00 in 1.8 mi NNW 16.1 mph 28.8 mph N/A Snow Light Snow
7:51 AM 12.2 °F -1.8 °F 10.4 °F 92% 30.01 in 1.2 mi NNW 11.5 mph 23.0 mph N/A Snow Light Snow
8:10 AM 12.2 °F -4.3 °F 10.4 °F 92% 30.02 in 1.2 mi NNW 16.1 mph 24.2 mph N/A Snow Light Snow
8:31 AM 12.2 °F -3.7 °F 8.6 °F 85% 30.04 in 1.0 mi NNW 15.0 mph 26.5 mph N/A Snow Light Snow
8:51 AM 12.2 °F -2.5 °F 10.4 °F 92% 30.05 in 1.2 mi NNW 12.7 mph 21.9 mph N/A Snow Light Snow
9:30 AM 12.2 °F -4.3 °F 8.6 °F 85% 30.07 in 1.5 mi NNW 16.1 mph 25.3 mph N/A Snow Light Snow
9:51 AM 12.2 °F -3.7 °F 8.6 °F 85% 30.09 in 3.0 mi NW 15.0 mph 24.2 mph N/A Snow Light Snow
10:10 AM 10.4 °F -5.4 °F 6.8 °F 85% 30.10 in 5.0 mi NW 13.8 mph 27.6 mph N/A   Overcast
10:31 AM 10.4 °F -5.4 °F 6.8 °F 85% 30.11 in 7.0 mi NW 13.8 mph 20.7 mph N/A   Overcast
10:50 AM 10.4 °F -6.6 °F 6.8 °F 85% 30.12 in 10.0 mi NW 16.1 mph 20.7 mph N/A   Overcast
11:10 AM 12.2 °F -1.8 °F 6.8 °F 79% 30.12 in 10.0 mi NW 11.5 mph 24.2 mph N/A   Overcast
11:31 AM 10.4 °F -5.4 °F 6.8 °F 85% 30.13 in 7.0 mi NW 13.8 mph 24.2 mph N/A   Mostly Cloudy
11:50 AM 10.4 °F -3.3 °F 5.0 °F 79% 30.13 in 10.0 mi NW 10.4 mph 19.6 mph N/A   Mostly Cloudy
12:11 PM 12.2 °F -2.5 °F 5.0 °F 73% 30.13 in 10.0 mi NW 12.7 mph 23.0 mph N/A   Scattered Clouds
12:31 PM 12.2 °F -3.7 °F 5.0 °F 73% 30.13 in 10.0 mi NW 15.0 mph 21.9 mph N/A   Scattered Clouds
12:50 PM 12.2 °F -2.5 °F 5.0 °F 73% 30.14 in 10.0 mi NW 12.7 mph 21.9 mph N/A   Scattered Clouds
1:11 PM 12.2 °F -3.7 °F 5.0 °F 73% 30.14 in 10.0 mi NW 15.0 mph 23.0 mph N/A   Mostly Cloudy
1:30 PM 12.2 °F -2.5 °F 3.2 °F 67% 30.14 in 10.0 mi NW 12.7 mph 23.0 mph N/A   Scattered Clouds
2:10 PM 12.2 °F -3.1 °F 3.2 °F 67% 30.14 in 10.0 mi NW 13.8 mph 19.6 mph N/A   Clear
2:31 PM 12.2 °F -2.5 °F 5.0 °F 73% 30.15 in 10.0 mi WNW 12.7 mph 20.7 mph N/A   Clear
2:50 PM 12.2 °F -3.1 °F 3.2 °F 67% 30.17 in 10.0 mi WNW 13.8 mph 20.7 mph N/A   Clear
3:11 PM 12.2 °F -1.8 °F 3.2 °F 67% 30.17 in 10.0 mi WNW 11.5 mph 19.6 mph N/A   Clear
3:30 PM 12.2 °F -1.8 °F 3.2 °F 67% 30.18 in 10.0 mi WNW 11.5 mph 19.6 mph N/A   Clear
3:50 PM 12.2 °F -1.8 °F 3.2 °F 67% 30.19 in 10.0 mi WNW 11.5 mph 17.3 mph N/A   Clear
4:11 PM 12.2 °F 0.7 °F 1.4 °F 62% 30.19 in 10.0 mi NW 8.1 mph - N/A   Clear
4:30 PM 10.4 °F -1.5 °F 1.4 °F 67% 30.20 in 10.0 mi NW 8.1 mph - N/A   Clear
4:51 PM 10.4 °F -0.4 °F 3.2 °F 73% 30.21 in 10.0 mi WNW 6.9 mph - N/A   Clear
5:11 PM 10.4 °F -2.4 °F 3.2 °F 73% 30.21 in 10.0 mi WNW 9.2 mph - N/A   Clear
5:30 PM 8.6 °F -5.5 °F 3.2 °F 79% 30.22 in 10.0 mi WNW 10.4 mph 17.3 mph N/A   Clear
5:51 PM 8.6 °F -4.7 °F 1.4 °F 73% 30.23 in 10.0 mi WNW 9.2 mph - N/A   Clear
6:10 PM 8.6 °F -3.7 °F 1.4 °F 73% 30.24 in 10.0 mi West 8.1 mph - N/A   Clear
6:30 PM 6.8 °F -5.9 °F 1.4 °F 79% 30.25 in 10.0 mi West 8.1 mph - N/A   Clear
6:51 PM 6.8 °F -5.9 °F 1.4 °F 79% 30.25 in 10.0 mi West 8.1 mph - N/A   Clear
7:10 PM 6.8 °F -4.8 °F 1.4 °F 79% 30.25 in 10.0 mi West 6.9 mph - N/A   Clear
7:50 PM 5.0 °F -6.9 °F -0.4 °F 78% 30.25 in 10.0 mi West 6.9 mph - N/A   Clear
8:30 PM 3.2 °F -6.2 °F -0.4 °F 85% 30.25 in 10.0 mi West 4.6 mph - N/A   Clear
8:50 PM 3.2 °F -6.2 °F -0.4 °F 85% 30.25 in 10.0 mi WNW 4.6 mph - N/A   Clear
9:11 PM 3.2 °F -4.2 °F -0.4 °F 85% 30.24 in 10.0 mi West 3.5 mph - N/A   Clear
9:30 PM 3.2 °F -6.2 °F -0.4 °F 85% 30.24 in 10.0 mi WNW 4.6 mph - N/A   Clear
9:51 PM 3.2 °F -4.2 °F -0.4 °F 85% 30.23 in 10.0 mi WNW 3.5 mph - N/A   Clear
10:10 PM 1.4 °F -6.2 °F -0.4 °F 92% 30.24 in 10.0 mi West 3.5 mph - N/A   Clear
10:30 PM 3.2 °F - -0.4 °F 85% 30.24 in 10.0 mi Calm Calm - N/A   Clear
10:51 PM 1.4 °F - -2.2 °F 85% 30.23 in 10.0 mi Calm Calm - N/A   Clear
11:10 PM 1.4 °F -6.2 °F -0.4 °F 92% 30.23 in 10.0 mi SSW 3.5 mph - N/A   Clear
11:31 PM 1.4 °F - -0.4 °F 92% 30.22 in 10.0 mi Calm Calm - N/A   Clear
11:50 PM 1.4 °F -6.2 °F -2.2 °F 85% 30.22 in 10.0 mi SSW 3.5 mph - N/A   Clear